Theta_e
301 301 301 301 302 302 302 302 302 302 302 302 303 304 306 307 308 309 313 313 313 311 313 314 313 309 309 309 310 311 311 311 312 313 315 316 317 317 315 314 317 321 327 332 334
302 302 302 302 302 302 302 302 301 302 302 302 302 303 304 304 307 313 310 308 309 310 313 313 310 309 309 310 311 310 310 310 311 310 311 312 314 315 314 314 313 320 327 333 332
302 302 302 302 302 302 302 302 302 302 302 302 302 302 302 302 309 312 305 303 305 306 309 310 310 310 310 310 311 311 310 310 310 311 311 311 310 310 311 312 313 315 328 332 331
300 301 301 302 302 302 302 302 302 302 302 302 301 301 300 304 311 310 305 305 305 307 307 311 310 310 311 311 311 310 310 310 311 311 310 310 310 309 309 310 311 313 322 331 330
299 299 299 300 301 301 302 302 302 301 301 301 301 301 301 303 306 307 305 305 305 306 306 307 311 310 311 311 311 312 311 311 310 310 308 309 308 308 308 309 310 315 323 330 330
299 299 299 299 299 300 300 300 300 300 301 301 300 300 301 302 304 304 305 305 305 305 305 306 309 311 309 308 309 311 310 310 310 310 310 309 308 307 308 308 308 311 314 323 328
298 298 298 298 298 299 299 299 300 300 300 300 300 302 300 301 303 304 304 305 307 307 306 305 306 309 311 309 309 309 309 309 309 309 309 309 308 308 308 307 308 309 309 313 319
297 298 297 298 298 298 298 299 300 300 300 299 301 301 301 301 303 302 300 304 306 306 306 305 305 306 309 311 310 308 308 309 310 310 310 308 308 310 308 307 307 307 307 308 309
297 298 298 298 298 298 299 298 299 298 297 297 302 301 304 301 296 296 296 296 299 304 303 305 305 308 309 312 312 310 308 308 309 310 311 309 309 310 310 308 307 307 308 308 309
297 297 298 297 298 298 298 298 297 297 296 298 301 297 301 295 296 298 298 299 298 298 301 306 306 307 309 310 310 309 308 308 308 309 311 310 308 309 309 309 307 306 307 308 308
296 297 296 297 297 298 298 296 296 299 294 294 295 295 296 295 297 297 295 298 299 301 298 300 306 309 308 308 308 309 308 308 308 309 309 309 309 309 309 309 307 306 306 306 307
296 297 297 297 298 297 297 296 295 293 294 294 294 294 295 298 297 299 294 295 295 297 300 298 301 305 307 308 308 308 310 309 309 308 309 310 309 308 308 308 308 308 306 306 306
297 296 297 297 297 297 296 296 296 295 295 295 294 295 297 297 298 294 295 294 293 293 296 297 299 298 299 301 304 309 309 310 311 309 309 307 306 307 307 308 308 309 309 308 307
296 296 296 296 296 296 296 296 296 295 297 295 295 299 295 295 296 294 294 295 294 294 294 295 297 297 297 300 301 306 309 310 310 312 311 306 309 308 309 309 308 309 308 308 308
295 296 296 296 297 296 296 296 295 295 298 293 299 296 295 295 295 295 295 294 293 293 293 292 294 294 296 298 301 303 305 307 310 311 311 310 311 310 309 309 310 310 309 309 308
295 295 295 295 295 296 295 295 296 299 296 293 293 294 294 294 294 294 294 294 294 294 293 293 295 295 296 298 299 302 306 306 309 312 313 310 311 309 308 309 310 310 311 309 309
294 294 295 295 295 296 295 296 298 296 294 293 293 293 293 293 294 293 293 293 292 292 294 295 294 295 297 297 301 303 306 310 314 314 313 310 311 310 308 309 310 311 311 310 309
293 294 295 295 295 295 295 297 293 294 294 293 293 292 292 293 293 292 292 292 292 293 294 296 295 295 299 297 301 302 304 310 314 312 310 308 310 309 308 308 308 309 309 310 309
293 293 294 295 294 294 296 294 294 294 293 293 293 292 293 292 291 291 292 291 292 292 292 294 293 294 295 295 297 303 305 305 309 310 309 307 307 307 308 309 309 308 309 308 310
293 294 294 294 294 294 295 293 293 294 293 293 292 292 292 292 292 292 291 292 292 292 294 294 294 294 294 297 300 302 304 307 307 314 315 310 308 307 307 307 307 309 308 308 309
293 294 294 294 294 293 293 293 293 293 292 292 293 292 291 291 292 291 291 291 292 292 293 294 295 295 296 298 302 304 306 305 308 308 312 311 308 309 309 309 309 308 309 307 308
292 293 294 293 293 294 294 292 293 292 292 292 292 293 292 291 291 290 292 292 293 293 294 294 298 296 295 297 298 299 304 306 307 309 308 309 310 309 308 307 308 307 306 304 304
291 293 293 292 292 293 293 291 292 292 291 292 291 292 291 292 292 291 291 291 292 294 294 296 297 297 295 298 301 301 302 303 306 309 308 308 308 308 308 308 307 307 307 305 304
290 292 293 291 292 292 292 291 291 292 292 292 291 291 291 290 291 291 292 291 293 293 294 294 296 298 299 299 300 300 301 302 304 309 309 310 308 308 307 307 307 308 308 307 306
290 291 292 292 292 293 292 292 292 291 292 292 292 292 291 291 290 291 291 291 292 293 293 293 294 295 297 296 296 301 300 301 309 308 308 306 306 308 308 307 306 306 307 308 306
291 291 291 290 290 291 292 291 292 291 291 290 291 292 292 291 291 291 292 292 292 292 292 292 293 294 294 293 297 298 298 304 306 309 308 306 307 309 307 307 308 308 308 309 307
289 289 290 289 290 290 290 292 292 292 291 291 291 292 291 291 292 291 292 292 292 292 292 293 293 293 293 292 294 299 300 302 303 306 309 308 308 308 308 308 306 307 307 308 309
Wind_Speed
22 22 22 23 23 23 24 25 25 25 25 26 27 28 29 31 34 18 11 12 17 20 17 15 15 10 9 5 6 4 4 9 13 13 14 11 2 3 3 5 2 2 5 11 24
21 21 22 23 23 24 24 25 25 26 27 27 28 29 29 30 29 12 8 15 20 21 15 15 10 13 4 4 4 6 5 10 10 12 8 12 7 3 5 6 6 4 8 20 21
21 21 21 22 23 24 24 25 26 27 26 27 29 30 31 27 7 5 12 18 23 25 18 14 12 10 7 7 8 7 9 13 15 11 7 6 10 9 7 8 10 8 15 14 14
21 22 22 23 23 24 24 25 27 27 27 27 27 29 29 17 4 5 18 17 28 23 20 13 6 4 5 8 10 16 16 15 16 12 5 6 7 11 10 10 8 7 5 14 14
22 22 22 23 24 24 25 26 27 28 27 26 26 24 16 6 3 12 19 23 22 19 17 14 10 9 11 8 11 17 15 17 14 14 9 7 10 12 11 10 9 4 7 12 11
21 22 23 23 23 24 25 27 27 29 28 27 23 15 8 2 10 21 21 20 19 15 14 12 9 17 12 13 14 11 13 14 12 14 16 10 15 9 9 10 12 6 7 8 12
22 22 24 23 24 25 27 28 28 28 28 27 19 9 6 9 15 16 17 17 17 16 13 15 14 10 12 10 11 14 18 18 17 11 11 4 16 18 18 13 14 11 10 10 10
23 24 25 25 26 28 29 31 31 27 24 17 13 1 4 6 8 16 21 20 17 15 17 13 15 12 10 11 10 9 12 14 3 19 14 10 19 8 17 17 19 12 11 11 12
23 24 26 26 28 28 29 32 30 18 11 14 5 2 2 6 24 25 24 20 25 19 29 15 11 11 10 12 11 9 13 16 14 17 12 17 13 13 20 13 20 17 15 12 14
23 24 24 25 26 30 28 31 19 5 20 2 0 5 4 8 21 13 23 20 13 15 13 2 3 9 8 11 15 9 18 17 23 11 15 15 21 11 13 8 13 11 12 15 15
23 24 25 27 27 24 27 14 8 2 11 5 11 9 9 17 8 16 22 19 16 11 7 8 12 18 10 16 21 21 24 24 18 12 20 17 17 17 14 15 12 9 8 9 9
22 24 24 25 23 15 16 10 9 4 8 19 7 7 8 8 5 10 23 11 12 11 12 7 18 14 17 20 23 23 26 32 22 22 10 14 16 13 13 15 15 12 12 11 9
20 21 22 24 15 13 12 11 9 11 4 7 1 2 4 9 6 16 13 11 11 10 10 12 19 25 23 22 24 24 28 23 23 15 18 5 11 14 15 16 15 18 16 13 17
19 20 21 24 4 15 9 13 11 9 3 3 4 2 7 10 4 27 13 9 8 12 16 13 8 15 23 24 21 25 20 23 21 16 19 6 18 18 12 19 24 25 21 18 16
21 21 21 17 10 11 12 13 13 3 2 2 5 2 8 8 12 10 8 4 12 19 11 18 23 22 23 26 24 28 18 22 25 20 19 21 14 27 10 18 22 16 25 22 20
22 21 21 13 13 6 11 14 9 2 1 3 1 11 13 13 13 11 9 10 16 12 16 27 22 23 25 26 27 19 13 22 19 17 16 26 18 22 20 28 9 17 17 21 20
22 22 19 10 8 10 11 9 1 0 2 3 9 13 13 17 13 11 13 13 14 18 17 24 22 26 28 26 22 19 11 8 11 10 14 20 17 26 9 18 17 19 12 11 15
25 21 12 9 10 6 6 2 0 3 3 9 11 14 13 12 12 15 15 13 17 10 15 12 17 17 13 13 13 20 16 9 15 8 24 18 12 22 22 31 24 7 7 8 11
24 14 10 5 5 1 2 1 2 7 10 9 12 10 6 9 13 14 12 14 12 16 9 16 14 28 29 29 12 5 18 17 23 21 7 7 20 21 18 17 12 10 14 11 9
18 12 5 4 5 3 1 4 4 7 9 8 9 4 13 15 11 10 9 10 14 17 5 10 23 30 25 17 15 18 9 11 10 9 11 6 22 13 14 24 13 9 10 10 9
10 4 1 2 4 1 2 3 5 9 9 2 4 8 11 13 10 13 8 18 13 16 16 19 15 28 11 4 15 8 13 11 9 15 5 2 6 3 7 3 2 9 2 2 5
8 2 3 3 1 2 2 2 4 8 9 9 4 6 9 12 10 10 11 11 13 14 15 23 6 8 16 24 24 20 20 21 13 21 17 12 7 3 4 6 6 7 4 5 6
5 3 1 3 3 3 3 2 2 4 6 4 5 6 7 12 8 7 10 9 15 13 7 8 5 7 9 6 5 4 14 16 19 15 21 16 13 2 4 9 7 6 6 4 5
2 3 1 3 3 5 8 8 5 7 4 6 9 11 10 9 10 9 15 9 17 17 25 14 13 7 11 15 16 16 16 23 22 15 14 15 10 25 14 9 7 5 4 3 3
2 3 2 3 3 7 10 6 10 11 8 11 9 9 9 6 9 12 13 21 18 16 10 8 11 16 17 20 21 20 19 19 16 22 17 19 9 15 6 6 5 4 3 4 4
2 3 3 7 11 14 17 13 16 18 13 14 11 16 13 14 12 16 15 14 12 16 17 9 10 18 17 19 13 20 21 13 10 15 18 12 9 4 6 6 7 6 4 3 4
3 6 3 8 8 10 11 13 16 11 13 15 14 13 15 13 15 15 14 15 17 21 22 14 4 8 12 15 25 2 7 9 11 9 13 14 10 8 5 7 9 7 7 6 5
Wind_Direction
18 15 11 8 5 3 2 358 357 357 352 347 340 336 336 333 338 337 44 352 340 335 336 300 291 268 268 259 243 275 258 249 250 250 265 275 241 277 98 316 286 156 51 105 124
9 6 2 360 358 357 356 354 353 352 349 346 345 341 337 334 328 65 12 2 1 2 342 334 323 331 245 224 219 213 221 247 261 278 293 323 326 320 310 242 253 152 86 116 133
4 0 355 353 350 350 349 348 347 346 345 342 342 339 335 335 302 74 6 360 358 353 339 310 293 288 259 246 227 217 244 268 279 282 324 303 317 312 287 288 272 221 159 147 160
356 355 354 351 346 344 342 341 340 339 339 340 339 337 336 329 54 58 350 355 347 346 342 327 294 261 257 242 233 251 262 269 277 286 321 279 294 276 275 257 288 1 112 154 175
355 352 347 344 344 343 340 336 333 330 331 333 335 335 344 352 23 357 344 335 342 344 342 324 304 281 262 265 272 257 255 260 286 292 255 270 248 260 275 278 274 85 90 161 183
354 354 350 344 342 337 334 330 326 322 324 326 331 330 329 339 7 349 346 351 347 339 319 314 308 320 303 283 275 289 302 288 255 264 271 247 263 247 249 250 262 213 184 195 188
353 353 352 348 342 338 334 330 323 321 320 322 326 316 278 275 339 347 354 350 357 347 325 303 294 305 321 303 277 278 280 274 261 254 255 272 265 239 245 253 249 237 203 193 213
352 350 351 347 343 339 332 327 321 321 319 320 328 227 282 311 345 359 354 346 350 342 336 301 276 279 262 299 304 282 275 267 225 230 237 186 253 256 230 225 240 225 245 196 206
350 351 347 345 342 338 332 324 323 323 334 322 267 258 40 25 4 343 343 325 321 328 329 306 271 254 258 246 277 233 264 263 258 229 227 194 255 239 240 233 225 227 224 231 199
349 346 346 344 343 340 339 331 321 355 339 209 186 260 65 347 341 352 359 344 329 325 325 34 241 256 220 220 234 220 242 246 248 253 221 221 232 247 277 254 235 229 217 220 226
347 346 346 346 344 348 351 353 10 208 15 358 317 304 303 333 316 37 2 348 2 356 334 305 287 242 248 248 259 269 276 273 265 223 243 239 240 249 241 249 248 239 250 230 245
347 347 345 341 338 352 4 36 46 271 308 301 274 254 265 318 338 21 352 16 359 352 340 319 259 280 282 273 271 260 259 260 279 280 258 247 237 242 243 246 253 236 216 222 236
346 343 341 337 329 354 357 25 357 350 302 304 16 33 16 321 33 355 2 350 346 337 342 295 279 318 301 297 293 276 257 268 266 276 281 243 264 259 252 260 248 244 237 222 213
344 342 342 341 353 338 15 346 344 340 297 122 143 83 1 332 197 323 14 340 332 331 320 287 320 322 313 285 269 275 298 291 269 259 255 171 270 250 245 240 234 234 232 227 222
345 343 342 342 322 333 335 327 329 277 9 331 89 189 11 10 301 4 29 4 327 312 287 265 294 286 271 274 283 270 268 274 299 260 257 259 273 259 226 246 243 232 229 225 220
341 340 338 340 322 344 331 321 306 233 254 343 85 355 354 342 324 325 355 339 301 293 287 287 282 263 262 260 260 278 292 260 277 270 248 237 228 262 227 233 226 230 239 212 213
335 332 330 324 313 331 329 319 289 339 354 335 346 346 336 321 346 343 342 333 319 323 321 319 292 279 251 258 254 254 266 243 226 225 235 228 226 237 241 225 228 223 238 223 199
335 327 322 314 322 319 328 291 315 95 320 331 0 328 304 350 324 341 329 322 316 329 309 316 332 321 315 320 286 245 225 233 231 195 232 208 229 243 236 254 261 246 248 264 221
338 327 315 333 358 324 309 315 306 349 359 347 315 302 341 316 341 327 323 305 325 314 330 310 290 300 291 294 262 271 235 247 259 286 234 211 244 256 278 222 224 241 237 228 235
331 313 318 357 91 76 300 254 298 297 307 322 311 286 328 328 322 324 321 298 317 307 70 298 299 292 288 293 262 223 199 220 222 227 238 243 226 223 205 231 231 230 224 231 224
331 323 86 73 99 29 253 266 328 307 321 26 310 303 304 305 314 314 283 303 301 333 324 290 269 278 295 255 284 283 250 221 284 233 250 241 244 340 285 30 314 277 180 313 237
334 293 52 150 289 216 257 329 350 295 320 301 260 267 279 308 310 303 287 279 313 313 306 290 264 259 263 275 267 254 269 230 221 227 234 247 276 24 17 61 12 344 6 30 336
326 279 187 171 255 242 254 267 242 290 304 296 293 291 286 289 296 283 293 288 294 313 303 321 272 298 302 303 72 324 304 310 247 269 231 224 238 232 60 54 29 12 4 17 342
321 301 174 184 297 297 298 279 266 207 257 256 266 293 288 285 281 279 292 297 310 305 302 333 293 248 281 293 299 296 311 303 257 243 229 246 230 264 274 22 7 6 12 53 25
209 275 66 314 269 252 266 278 281 280 232 259 282 248 261 275 297 285 298 307 306 304 306 328 293 308 308 299 293 276 286 294 252 234 237 227 236 245 330 347 331 318 337 128 65
288 316 347 292 283 281 274 263 265 277 279 279 272 278 263 264 277 292 309 307 299 307 303 297 285 305 302 303 296 297 296 309 248 251 242 255 241 49 5 11 21 22 7 68 160
250 263 262 283 286 284 284 291 291 280 274 274 276 279 286 278 293 283 282 286 282 285 289 293 292 323 293 304 304 278 319 314 313 322 237 235 251 256 48 32 18 12 39 32 76